Tracking 19706 objects as of 16-Jun-2019
HD Live streaming from Space Station
objects crossing your sky now

THORAD AGENA D DEB

Track THORAD AGENA D DEB now!
10-day predictions


NORAD ID: 4687
Int'l Code: 1970-025BL
Perigee: 1,058.2 km
Apogee: 1,098.3 km
Inclination: 99.5 °
Period: 106.6 minutes
Semi major axis: 7449 km
RCS: 0.2719 m2 (medium)
Launch date: April 8, 1970
Source: United States (US)
Launch site: AIR FORCE WESTERN TEST RANGE (AFWTR)

Note: This is SATELLITE DEBRIS
aabbcc
Your satellite tracking list
Your tracking list is empty




NASA's NSSDC Master Catalog

Two Line Element Set (TLE):
1  4687U 70025BL  19166.85130117 +.00000027 +00000-0 +10906-3 0  9996
2  4687 099.5490 034.1931 0026927 206.6227 282.5494 13.50301321418911
Source of the keplerian elements: AFSPC